Date String (YYYY-MM-DD hh:mm:ss) UTC,Instrument flags,Ambient pressure (hPa),Sample flow (lpm),Bypass flow (lpm),Sample temperature (°C),Ambient temperature (°C),ASC tube jacket temperature (°C),LED temperature (°C),Box temperature (°C),Sample RH (%),Span deviation,Mass concentration (μg/m³),Mass concentration (μg/m³),Mass concentration (μg/m³)
DateTimeUTC,F1_M11,P_M11,Q1_M11,Q2_M11,T1_M11,T2_M11,T3_M11,T4_M11,T5_M11,U1_M11,ZSPAN_M11,X2_M11,X0_M11,X1_M11
2022-07-07 21:00:00,,0829.2,5.00,0.00,29.3,28.1,00.0,37.9,31.3,27.8,0000.0,0003.76,0009.48,0002.73
2022-07-07 21:01:00,,0829.2,5.01,0.00,29.3,27.6,00.0,37.9,31.2,27.3,0000.0,0003.84,0009.96,0002.77
2022-07-07 21:02:00,,0829.2,5.01,0.00,29.3,27.0,00.0,37.8,31.1,26.3,0000.0,0003.86,0010.19,0002.76
2022-07-07 21:03:00,,0829.2,5.00,0.00,29.2,26.8,00.0,37.8,31.1,25.5,0000.0,0003.86,0010.30,0002.73
2022-07-07 21:04:00,,0829.2,5.00,0.00,29.2,26.9,00.0,37.8,31.0,26.1,0000.0,0003.84,0010.06,0002.71
2022-07-07 21:05:00,,0829.2,5.00,0.00,29.1,27.1,00.0,37.8,30.9,25.7,0000.0,0003.80,0009.98,0002.69
2022-07-07 21:06:00,,0829.2,4.99,0.00,29.1,27.3,00.0,37.8,31.0,25.7,0000.0,0003.80,0009.72,0002.69
2022-07-07 21:07:00,,0829.3,4.99,0.00,29.1,27.5,00.0,37.9,31.0,25.8,0000.0,0003.73,0009.28,0002.66
2022-07-07 21:08:00,,0829.3,5.00,0.00,29.1,27.7,00.0,37.9,31.1,25.2,0000.0,0003.70,0009.18,0002.63
2022-07-07 21:09:00,,0829.2,5.00,0.00,29.2,27.9,00.0,37.9,31.2,24.5,0000.0,0003.58,0008.75,0002.58
2022-07-07 21:10:00,,0829.2,5.00,0.00,29.2,28.0,00.0,37.9,31.2,24.5,0000.0,0003.44,0008.36,0002.52
2022-07-07 21:11:00,,0829.3,5.01,0.00,29.3,28.2,00.0,37.9,31.3,24.8,0000.0,0003.32,0007.98,0002.45
2022-07-07 21:12:00,,0829.2,5.00,0.00,29.3,28.3,00.0,37.9,31.3,24.8,0000.0,0003.26,0007.86,0002.38
2022-07-07 21:13:00,,0829.4,5.00,0.00,29.4,27.9,00.0,37.9,31.3,24.8,0000.0,0003.23,0007.12,0002.35
2022-07-07 21:14:00,,0829.2,4.99,0.00,29.3,27.3,00.0,37.9,31.2,25.7,0000.0,0003.23,0006.65,0002.37
2022-07-07 21:15:00,,0829.3,5.00,0.00,29.3,27.1,00.0,37.9,31.2,26.0,0000.0,0003.26,0006.83,0002.40
2022-07-07 21:16:00,,0829.4,5.00,0.00,29.2,27.1,00.0,37.9,31.1,25.4,0000.0,0003.28,0007.57,0002.40
2022-07-07 21:17:00,,0829.3,5.00,0.00,29.2,27.2,00.0,37.9,31.0,25.8,0000.0,0003.27,0007.84,0002.41
2022-07-07 21:18:00,,0829.4,5.00,0.00,29.2,27.4,00.0,37.9,31.1,25.1,0000.0,0003.28,0007.88,0002.41
2022-07-07 21:19:00,,0829.5,4.99,0.00,29.2,27.6,00.0,37.9,31.1,24.4,0000.0,0003.29,0007.88,0002.41
2022-07-07 21:20:00,,0829.5,5.00,0.00,29.2,27.8,00.0,37.9,31.2,24.9,0000.0,0003.30,0007.87,0002.41
2022-07-07 21:21:00,,0829.5,5.00,0.00,29.3,28.0,00.0,37.9,31.3,24.2,0000.0,0003.33,0007.91,0002.43
2022-07-07 21:22:00,,0829.5,5.00,0.00,29.3,28.2,00.0,38.0,31.3,24.3,0000.0,0003.35,0008.06,0002.42
2022-07-07 21:23:00,,0829.5,5.00,0.00,29.4,28.2,00.0,38.0,31.4,24.6,0000.0,0003.30,0007.76,0002.43
2022-07-07 21:24:00,,0829.5,5.00,0.00,29.4,27.7,00.0,37.9,31.3,23.7,0000.0,0003.31,0007.38,0002.44
2022-07-07 21:25:00,,0829.5,5.01,0.00,29.3,27.2,00.0,37.9,31.2,24.0,0000.0,0003.29,0007.32,0002.44
2022-07-07 21:26:00,,0829.6,5.01,0.00,29.3,27.1,00.0,37.9,31.2,24.0,0000.0,0003.23,0007.22,0002.39
2022-07-07 21:27:00,,0829.5,5.00,0.00,29.3,27.2,00.0,37.9,31.1,24.1,0000.0,0003.17,0008.27,0002.37
2022-07-07 21:28:00,,0829.5,5.00,0.00,29.2,27.3,00.0,37.9,31.1,24.0,0000.0,0003.14,0008.03,0002.34
2022-07-07 21:29:00,,0829.5,4.99,0.00,29.2,27.5,00.0,37.9,31.1,24.6,0000.0,0003.11,0008.63,0002.31
2022-07-07 21:30:00,,0829.5,5.01,0.00,29.3,27.7,00.0,37.9,31.2,25.4,0000.0,0003.11,0008.83,0002.32
2022-07-07 21:31:00,,0829.5,5.00,0.00,29.3,27.9,00.0,38.0,31.3,25.7,0000.0,0003.15,0009.11,0002.34
2022-07-07 21:32:00,,0829.5,4.99,0.00,29.3,28.1,00.0,38.0,31.3,26.0,0000.0,0003.16,0009.24,0002.35
2022-07-07 21:33:00,,0829.6,5.00,0.00,29.4,28.2,00.0,38.0,31.4,26.3,0000.0,0003.18,0009.57,0002.38
2022-07-07 21:34:00,,0829.5,5.00,0.00,29.4,27.7,00.0,37.9,31.3,27.1,0000.0,0003.23,0009.66,0002.41
2022-07-07 21:35:00,,0829.5,5.00,0.00,29.3,27.2,00.0,37.9,31.2,28.4,0000.0,0003.24,0009.74,0002.44
2022-07-07 21:36:00,,0829.6,5.00,0.00,29.3,27.0,00.0,37.9,31.1,28.2,0000.0,0003.29,0009.93,0002.48
2022-07-07 21:37:00,,0829.6,5.01,0.00,29.2,27.1,00.0,37.9,31.0,31.1,0000.0,0003.33,0010.14,0002.53
2022-07-07 21:38:00,,0829.6,5.00,0.00,29.2,27.2,00.0,37.9,31.0,32.6,0000.0,0003.45,0009.47,0002.64
2022-07-07 21:39:00,,0829.7,4.99,0.00,29.2,27.4,00.0,37.9,31.1,32.2,0000.0,0003.62,0012.04,0002.74
2022-07-07 21:40:00,,0829.8,5.01,0.00,29.2,27.6,00.0,37.9,31.2,32.6,0000.0,0003.79,0012.80,0002.87
2022-07-07 21:41:00,,0829.8,5.00,0.00,29.2,27.8,00.0,37.9,31.2,33.4,0000.0,0003.92,0013.03,0002.97
2022-07-07 21:42:00,,0829.8,4.99,0.00,29.3,28.0,00.0,38.0,31.3,32.6,0000.0,0004.03,0013.09,0003.04
2022-07-07 21:43:00,,0829.9,5.00,0.00,29.3,28.1,00.0,38.0,31.3,32.4,0000.0,0004.07,0013.22,0003.09
2022-07-07 21:44:00,,0829.9,5.00,0.00,29.3,28.3,00.0,38.0,31.4,31.4,0000.0,0004.16,0013.65,0003.14
2022-07-07 21:45:00,,0829.8,5.00,0.00,29.4,27.9,00.0,38.0,31.4,30.5,0000.0,0004.23,0013.72,0003.16
2022-07-07 21:46:00,,0829.9,5.00,0.00,29.3,27.2,00.0,37.9,31.2,30.5,0000.0,0004.29,0014.24,0003.17
2022-07-07 21:47:00,,0829.8,5.01,0.00,29.3,27.0,00.0,37.9,31.2,30.9,0000.0,0004.36,0015.06,0003.18
2022-07-07 21:48:00,,0829.8,4.99,0.00,29.2,27.0,00.0,37.9,31.1,30.0,0000.0,0004.45,0015.51,0003.19
2022-07-07 21:49:00,,0829.9,4.99,0.00,29.2,27.1,00.0,37.9,31.0,30.2,0000.0,0004.44,0015.08,0003.17
2022-07-07 21:50:00,,0829.9,5.00,0.00,29.2,27.3,00.0,37.9,31.1,30.3,0000.0,0004.35,0012.71,0003.15
2022-07-07 21:51:00,,0829.9,5.00,0.00,29.2,27.5,00.0,37.9,31.1,30.4,0000.0,0004.25,0011.64,0003.11
2022-07-07 21:52:00,,0829.9,5.00,0.00,29.2,27.7,00.0,37.9,31.2,30.0,0000.0,0004.18,0012.29,0003.07
2022-07-07 21:53:00,,0829.9,5.00,0.00,29.3,27.9,00.0,37.9,31.3,29.1,0000.0,0004.08,0012.02,0003.01
2022-07-07 21:54:00,,0829.9,5.01,0.00,29.3,28.1,00.0,38.0,31.3,28.7,0000.0,0004.06,0011.91,0002.95
2022-07-07 21:55:00,,0829.9,4.99,0.00,29.3,28.2,00.0,38.0,31.4,29.1,0000.0,0003.97,0011.25,0002.88
2022-07-07 21:56:00,,0829.9,5.00,0.00,29.4,28.0,00.0,38.0,31.4,28.7,0000.0,0003.91,0012.05,0002.82
2022-07-07 21:57:00,,0829.9,5.00,0.00,29.3,27.3,00.0,37.9,31.3,28.6,0000.0,0003.87,0012.19,0002.78
2022-07-07 21:58:00,,0829.9,4.99,0.00,29.3,27.0,00.0,37.9,31.2,29.1,0000.0,0003.82,0011.56,0002.75
2022-07-07 21:59:00,,0829.9,4.99,0.00,29.3,27.0,00.0,37.9,31.1,28.9,0000.0,0003.78,0011.52,0002.71
